Lapse_Rate
2.7 2.1 3.2 5.9 6.5 6.5 6.5 6.5 6.5 6.5 6.5 7.3 7.5 7.1 6.6 7.2 6.5 6.5 6.5 5.6 5.3 6.4 6.3 6.7 5.8 5.2 4.7 4.9 5.0 5.1 5.2 5.4 5.4 5.0 4.8 5.0 5.1 4.9 4.8 5.0 5.1 5.2 5.1 5.0 4.8 4.5 4.3 4.1 3.8
3.2 3.5 5.0 5.9 6.5 6.5 6.5 6.5 6.5 6.5 7.1 7.1 7.2 7.4 7.0 6.5 7.0 5.5 6.8 5.7 5.5 5.2 6.1 6.9 6.1 5.3 5.0 5.1 5.1 5.3 5.5 5.5 5.0 4.7 4.9 4.9 4.9 4.7 4.5 4.5 4.6 4.9 5.0 5.1 4.9 4.7 4.3 3.9 3.8
4.3 4.1 7.0 6.5 6.5 6.5 6.5 6.5 6.5 7.0 7.4 7.1 6.3 6.9 7.0 6.5 5.4 6.5 6.7 6.1 5.9 5.9 6.4 6.3 5.9 5.6 5.3 5.2 5.4 5.3 5.2 5.0 4.6 4.6 4.7 4.9 4.6 4.5 4.3 4.3 4.6 5.0 5.1 5.1 5.0 4.6 4.1 3.7 3.8
5.2 6.0 6.4 6.5 6.5 6.5 6.5 6.5 6.9 6.8 7.2 7.2 7.2 6.6 6.1 5.9 5.8 6.4 5.8 5.7 6.1 6.3 6.3 5.8 6.2 5.6 5.4 5.4 5.1 5.0 4.8 4.6 4.5 4.6 4.8 4.8 4.4 4.3 4.2 4.2 4.7 5.0 5.1 5.0 4.7 4.3 3.9 4.0 4.3
4.2 5.4 6.5 6.5 6.5 6.5 6.5 7.0 7.1 6.5 6.7 6.8 7.1 6.7 7.1 5.4 5.6 5.5 6.0 6.4 6.3 6.5 6.3 6.1 6.0 5.8 5.6 5.1 4.8 4.8 4.8 4.6 4.5 4.5 4.6 4.2 4.0 3.9 4.0 4.3 4.4 4.5 4.4 4.2 4.0 3.9 3.7 3.9 4.0
6.8 6.5 6.5 6.5 6.5 6.5 6.6 7.2 7.1 6.9 7.0 7.1 7.0 7.0 6.9 5.3 5.5 5.1 5.8 6.0 6.2 6.0 6.3 6.3 6.0 5.8 5.2 4.8 4.9 4.9 4.7 4.3 4.1 4.2 4.0 3.9 3.7 3.8 4.2 4.2 4.2 4.3 4.3 4.2 4.0 4.1 4.2 4.1 4.2
6.7 6.5 6.5 6.5 6.5 6.5 6.5 7.2 6.4 6.8 6.9 6.9 6.9 6.5 6.4 5.9 5.2 5.5 6.2 6.1 6.0 5.7 6.2 6.3 6.4 5.7 5.1 5.3 4.9 4.6 4.4 4.1 4.0 3.8 3.9 3.7 3.6 3.8 4.2 4.2 4.2 4.3 4.4 4.7 5.0 5.0 5.0 4.7 4.8
5.6 6.6 6.5 6.5 6.5 6.5 6.7 7.0 6.1 6.5 6.8 6.7 6.5 6.6 6.7 6.1 5.9 6.2 6.7 6.9 6.8 6.3 6.7 6.8 6.5 6.8 6.6 5.8 4.9 4.2 4.1 3.9 3.9 3.9 4.0 3.9 4.0 4.1 4.2 4.3 4.5 4.6 4.8 4.9 5.1 5.3 5.5 5.3 5.1
4.5 6.5 6.5 6.5 6.5 6.5 6.6 6.6 6.6 6.3 7.3 6.8 6.6 7.3 6.8 5.4 6.2 6.8 6.9 6.4 5.7 6.6 6.4 5.6 6.1 5.5 4.9 5.0 4.4 3.9 3.9 3.7 3.8 4.2 4.2 4.3 5.3 5.1 5.3 4.9 4.7 4.7 4.6 4.7 5.2 5.5 5.4 5.0 5.2
6.7 6.5 6.5 6.5 6.6 6.5 6.8 6.7 6.9 7.0 7.0 6.9 6.2 5.1 5.6 5.5 5.7 5.8 6.2 6.1 6.1 6.1 4.9 4.8 4.8 5.1 4.5 4.6 4.1 4.1 4.3 4.6 4.9 5.4 4.9 5.2 4.8 4.9 5.0 4.9 4.3 4.7 4.8 4.7 4.7 4.5 4.5 5.0 6.2
6.7 6.5 6.5 6.6 6.6 6.6 6.8 6.8 6.7 7.0 6.5 6.9 7.0 5.3 5.0 5.6 6.0 6.2 6.3 4.8 5.4 4.9 4.2 3.9 4.0 3.9 4.1 4.5 4.1 4.2 4.3 4.5 4.8 4.7 4.8 5.0 5.1 5.4 5.6 5.6 5.7 5.5 4.7 5.7 5.3 5.3 5.6 5.1 5.5
6.5 6.6 6.5 6.7 5.7 6.0 6.7 7.0 6.8 7.0 6.7 5.3 4.6 3.7 4.3 5.5 4.7 3.7 4.0 4.3 3.8 3.6 4.5 4.3 3.8 3.6 3.2 4.0 4.4 4.7 5.3 5.1 5.5 5.4 5.0 5.3 5.8 5.5 5.4 6.1 5.5 5.0 4.9 5.0 5.0 5.3 4.7 4.9 4.9
6.5 6.6 6.3 5.7 4.7 5.3 5.1 6.7 6.4 6.6 4.0 4.3 4.5 4.9 4.9 4.4 4.2 3.8 4.6 3.9 3.8 4.4 4.7 4.0 3.5 3.7 3.9 4.3 4.6 4.7 4.3 4.2 4.2 4.5 5.0 5.1 6.1 6.0 5.7 5.2 5.2 5.0 5.1 5.0 5.4 5.5 5.6 5.5 5.6
6.3 6.4 6.6 6.1 5.9 5.3 6.4 6.5 6.5 5.9 4.4 4.0 4.2 4.7 5.1 5.2 4.6 4.8 4.9 4.3 4.3 4.9 5.0 3.9 4.3 5.0 5.0 4.9 4.5 3.6 2.5 2.9 3.7 3.5 3.0 3.8 4.2 4.9 5.4 5.2 5.1 5.0 4.6 4.7 5.3 5.2 5.5 5.4 5.8
5.9 6.5 6.5 6.6 6.3 6.4 5.7 6.5 6.5 6.6 5.5 5.3 7.2 6.2 5.8 6.5 6.2 6.1 5.7 4.9 4.9 5.0 4.1 4.4 4.4 5.2 5.1 4.6 4.5 3.6 1.8 1.6 2.1 2.3 2.4 2.9 3.4 3.9 4.3 5.2 4.8 4.5 4.5 4.9 5.1 5.2 5.4 6.1 6.2
6.5 6.5 6.5 6.5 6.6 6.2 6.4 6.5 6.6 5.7 7.2 7.1 7.1 6.6 6.2 5.5 5.2 5.0 5.3 6.1 4.9 4.5 4.6 5.4 5.8 5.1 3.4 2.9 1.2 0.5 -0.2 1.2 2.4 2.4 2.5 3.9 4.8 4.5 4.5 4.6 4.2 4.2 4.5 5.3 5.6 6.2 7.0 6.8 6.5
6.5 6.5 6.5 6.5 6.7 6.5 6.5 6.5 6.8 5.8 6.9 7.0 6.0 5.6 5.2 4.7 3.8 3.0 3.4 4.8 4.5 4.8 5.0 5.2 5.5 5.1 2.2 1.1 1.1 2.2 2.5 3.2 2.2 2.2 2.8 2.8 2.8 3.0 3.7 4.1 3.9 4.1 4.6 4.8 5.8 6.1 6.2 6.5 6.5
6.5 6.5 6.5 6.5 6.5 6.5 6.5 6.5 6.6 7.1 7.0 6.8 6.2 5.2 4.6 3.5 2.1 1.8 2.2 2.6 3.3 4.4 4.3 4.0 4.7 2.0 1.4 3.9 4.4 4.5 4.2 3.2 2.7 2.9 2.6 2.6 3.0 3.0 3.8 3.9 3.8 4.3 5.2 5.7 6.0 6.2 6.3 6.1 5.8
6.5 6.5 6.5 6.5 6.5 6.5 6.5 6.5 6.5 7.1 7.1 7.0 7.1 6.4 4.8 3.1 2.2 2.4 2.3 2.7 3.1 4.5 4.4 3.9 3.9 4.4 4.7 5.0 5.5 5.8 5.5 4.4 3.4 2.9 2.2 2.5 2.8 3.3 3.8 4.5 5.0 5.4 6.4 5.8 6.3 6.8 6.5 7.1 6.0
6.5 6.5 6.5 6.5 6.5 6.5 6.5 6.5 6.5 6.9 6.9 7.2 7.2 7.0 5.5 4.2 4.3 3.7 3.7 4.7 5.3 5.0 5.8 5.2 5.5 5.5 6.3 6.4 5.7 5.2 4.5 3.8 3.6 2.8 2.3 2.5 2.9 3.8 4.7 5.3 6.4 6.7 7.3 6.2 5.9 6.5 7.2 7.1 6.1
6.5 6.5 6.5 6.5 6.5 6.5 6.5 6.5 6.5 6.6 7.1 7.3 7.4 7.3 6.9 5.8 5.4 5.3 4.7 4.7 3.9 4.4 4.6 5.2 5.6 6.2 5.8 4.7 4.6 4.4 4.3 4.3 4.7 4.4 4.6 4.1 4.5 6.1 7.0 7.0 7.4 6.7 6.3 6.5 6.4 7.0 7.4 8.6 7.6
6.5 6.5 6.5 6.5 6.5 6.5 6.5 6.5 6.5 6.5 6.5 6.8 7.2 7.3 7.3 6.2 6.1 5.7 4.9 4.7 4.7 4.6 4.7 5.4 5.1 5.0 4.2 3.8 4.8 4.7 5.7 6.0 4.3 4.7 5.3 6.1 6.0 6.7 6.9 6.6 6.2 6.1 6.2 6.7 6.9 7.2 7.3 7.5 8.8
6.5 6.5 6.5 6.5 6.5 6.5 6.5 6.5 6.5 6.5 6.5 6.5 7.0 7.3 7.0 6.2 6.3 5.9 5.6 5.3 5.3 4.6 4.5 3.9 3.6 3.5 3.4 4.0 4.3 5.3 5.4 5.7 5.9 6.6 6.9 6.7 6.4 5.9 5.9 5.9 5.8 5.9 6.2 6.7 7.0 7.2 7.9 8.0 7.8
6.5 6.5 6.5 6.5 6.5 6.5 6.5 6.5 6.5 6.5 6.5 6.5 7.0 7.2 6.9 6.3 5.8 5.7 5.5 5.3 4.6 3.8 3.4 3.1 3.5 3.4 3.6 4.0 3.9 4.4 5.2 5.7 6.5 6.6 6.7 6.8 6.7 6.8 6.4 6.1 5.9 6.0 6.1 6.6 6.6 6.6 7.8 8.0 8.3
6.5 6.5 6.5 6.5 6.5 6.5 6.5 6.5 6.5 6.5 6.5 6.6 6.8 7.2 6.5 5.7 5.3 5.4 5.9 5.8 4.3 3.6 3.0 3.2 3.6 3.2 3.7 4.5 4.9 5.1 5.4 5.6 5.9 6.0 6.4 6.2 6.7 6.9 7.2 6.2 6.1 6.3 6.3 6.6 7.5 8.5 8.7 9.0 9.2
6.5 6.5 6.5 6.5 6.5 6.5 6.5 6.5 6.5 6.5 7.0 7.0 7.1 7.4 6.1 5.8 5.6 5.9 4.8 3.8 3.4 2.8 3.1 3.3 3.8 3.8 4.3 4.6 4.8 5.2 5.6 6.1 6.3 5.8 5.9 5.9 6.0 5.9 5.4 5.7 5.9 6.7 6.8 7.3 7.2 8.9 8.9 9.0 9.2
6.5 6.5 6.5 6.5 6.5 6.5 6.5 6.5 6.5 6.5 6.5 6.9 7.0 6.7 7.0 6.1 5.5 4.8 3.9 3.7 3.9 3.8 3.3 3.2 3.6 3.9 4.6 4.7 5.0 4.8 4.8 4.9 5.1 5.0 5.2 5.4 5.0 5.5 5.2 5.6 7.0 6.7 7.4 7.2 8.7 9.2 8.8 8.8 8.5
6.5 6.5 6.5 6.5 6.5 6.5 6.5 6.5 6.5 6.5 6.5 6.5 6.7 7.0 6.4 4.9 4.4 4.3 4.5 4.3 4.3 3.9 3.3 3.4 4.7 4.9 4.3 4.7 4.6 4.5 4.7 5.0 5.1 5.4 5.5 5.5 5.4 5.7 6.4 7.1 6.9 8.1 8.0 8.1 8.2 8.8 8.6 8.1 8.5
6.5 6.5 6.5 6.5 6.5 6.5 6.5 6.5 6.5 6.5 6.5 6.5 6.8 6.9 5.4 4.8 4.8 4.8 4.8 4.3 3.7 3.7 4.1 3.8 3.8 4.8 4.8 4.7 4.4 4.7 5.0 5.2 5.6 5.7 5.7 6.0 6.0 6.7 7.6 7.4 8.2 8.1 8.0 8.3 8.3 8.2 8.1 8.0 8.5
6.5 6.5 6.5 6.5 6.5 6.5 6.5 6.5 6.5 6.5 6.8 6.8 6.9 5.0 4.9 4.8 4.9 5.3 4.7 4.0 4.1 4.4 4.5 3.4 4.8 5.4 4.6 4.2 4.3 4.8 5.2 5.6 6.0 6.1 6.1 6.0 6.5 6.8 7.2 7.5 8.2 8.3 8.4 7.9 8.1 8.0 8.4 8.3 8.3
Wind_Speed
5 6 3 2 3 1 1 4 2 7 5 6 7 10 13 13 5 3 6 7 16 14 17 19 21 20 19 18 18 18 17 16 14 13 12 12 10 10 10 10 10 11 12 13 13 13 13 13 14
4 2 2 2 2 3 1 2 9 12 15 9 10 9 10 6 2 3 7 7 20 20 19 18 21 20 18 18 17 17 16 15 13 12 11 11 10 10 10 9 9 11 12 11 11 11 12 13 13
4 1 1 2 2 4 1 6 18 18 13 8 5 2 6 4 2 4 4 13 20 18 20 18 21 20 19 18 17 16 14 13 13 12 11 10 9 10 10 9 9 10 10 10 10 10 10 11 11
2 1 2 2 4 3 4 14 17 14 7 3 10 4 2 5 12 11 13 16 14 16 19 20 20 20 19 18 15 15 13 12 11 11 9 9 8 9 8 8 7 9 9 9 10 10 9 10 11
2 1 2 2 3 1 3 15 10 6 7 8 3 9 8 3 7 17 14 13 13 12 15 17 18 18 17 15 14 13 12 10 10 9 8 8 7 7 6 6 7 7 8 8 9 8 8 8 9
2 0 1 3 1 2 3 11 12 10 10 4 4 6 4 7 14 15 14 12 16 13 14 15 17 16 15 14 12 11 10 10 10 9 7 7 6 6 7 6 6 5 6 6 8 7 6 6 7
2 2 3 3 4 4 4 10 9 9 8 5 8 3 3 7 13 14 12 11 13 15 14 14 14 14 12 11 11 10 9 9 8 8 7 7 6 6 5 5 5 5 6 6 7 6 8 9 12
3 2 4 3 9 6 4 7 10 10 3 5 4 5 5 11 12 12 13 12 11 12 12 11 10 10 10 8 8 8 7 7 7 6 6 6 5 4 4 2 4 5 6 7 9 10 10 11 13
3 1 4 6 8 7 7 4 5 2 9 3 3 5 9 19 16 13 12 9 7 5 7 8 8 8 6 6 5 5 5 5 5 5 4 3 2 2 2 2 3 5 5 6 8 10 13 12 12
3 2 6 3 9 13 14 10 7 5 6 3 6 8 19 18 15 14 11 11 11 10 7 5 6 6 4 2 2 2 1 1 2 3 2 1 1 1 3 4 5 6 6 7 9 11 12 9 7
4 3 4 4 6 4 12 5 3 14 5 4 11 17 17 15 13 14 13 12 11 9 7 6 6 4 4 3 3 3 2 2 2 2 2 2 3 4 3 2 2 3 6 5 7 8 6 6 7
3 4 2 5 4 7 7 9 5 3 1 3 16 22 18 17 16 15 14 12 10 9 7 6 5 6 4 3 3 4 5 8 7 6 5 5 4 2 1 2 3 4 4 5 7 7 7 7 7
4 2 2 4 6 9 6 5 6 3 4 13 16 17 18 15 13 9 8 8 9 10 7 7 9 7 6 7 6 7 9 9 12 12 10 6 4 1 2 4 5 5 5 7 8 7 8 8 8
4 4 5 5 5 3 7 3 3 6 4 13 17 16 13 13 13 9 9 9 10 9 9 11 10 9 12 11 10 8 7 4 4 1 6 10 9 1 6 4 5 6 7 7 6 7 6 6 7
4 7 6 7 3 4 3 5 5 9 1 11 11 9 10 9 9 8 6 8 9 9 13 13 12 12 12 9 8 8 9 10 9 9 5 9 3 2 5 4 6 7 6 6 6 5 4 4 6
4 4 4 2 1 4 1 3 7 13 6 9 10 9 9 8 6 6 4 11 13 14 15 14 11 12 13 9 10 8 8 12 7 8 5 5 3 2 5 7 7 5 5 5 5 4 3 3 5
7 3 3 4 9 2 7 1 9 8 10 9 9 8 8 9 10 8 6 11 15 17 17 13 8 10 9 12 7 5 12 8 3 5 4 8 9 7 7 6 6 4 6 6 5 4 4 4 6
4 4 2 5 4 11 11 5 8 9 9 9 9 9 9 8 8 8 11 11 14 16 15 12 6 6 9 8 7 5 7 5 5 6 9 9 9 8 8 7 5 4 4 4 3 4 4 4 5
5 3 6 3 3 7 8 8 9 7 9 7 7 9 10 10 6 10 12 14 16 15 13 11 10 10 9 7 4 1 2 3 4 8 10 10 9 10 9 7 5 4 3 2 2 2 4 4 6
5 6 4 5 4 6 8 11 8 8 4 4 9 10 11 12 11 11 13 15 16 16 13 12 12 12 9 5 1 2 2 3 5 7 9 9 8 8 7 4 3 1 1 0 2 3 3 3 4
4 7 4 5 7 8 7 5 4 6 7 8 8 9 11 14 15 13 13 11 10 10 9 11 11 9 3 3 4 4 5 4 2 3 3 3 3 1 2 3 4 5 3 1 2 3 4 5 3
4 4 11 11 2 3 3 3 1 2 5 6 7 8 10 13 13 11 10 11 11 9 6 8 8 6 6 6 5 6 4 3 3 2 1 5 8 10 8 6 5 3 2 3 3 3 4 4 5
4 6 7 3 4 3 2 2 3 5 7 9 9 7 9 10 13 14 15 14 11 9 7 8 10 9 8 9 9 7 7 4 2 2 5 6 9 10 9 7 5 1 4 5 3 2 3 3 3
10 6 6 3 2 0 1 2 5 10 14 13 9 8 10 11 10 10 9 9 10 9 8 10 13 12 12 12 12 11 10 8 7 7 7 6 8 11 10 7 4 7 5 3 3 4 3 3 1
5 4 2 1 1 3 1 2 5 15 12 16 16 14 13 10 8 7 9 7 7 11 11 12 15 14 11 11 10 8 7 7 7 7 7 10 9 9 9 7 7 5 4 3 2 2 3 2 2
2 4 4 5 4 2 1 5 3 3 12 15 16 14 11 10 8 7 6 8 10 12 13 14 13 13 10 9 9 8 8 4 4 5 6 7 8 9 13 6 6 5 2 2 2 4 4 3 3
3 2 2 6 2 1 2 3 6 1 10 11 13 13 13 11 8 8 9 9 11 12 12 13 13 12 10 8 6 5 3 4 4 7 7 7 10 9 3 8 6 4 4 1 6 4 5 4 4
1 6 3 2 4 3 2 5 5 6 14 12 13 14 12 9 10 10 9 9 9 11 10 10 10 10 8 6 4 3 3 5 7 8 10 11 11 8 3 6 5 1 5 5 5 4 5 5 5
3 2 5 4 1 3 2 4 4 8 13 16 16 13 13 12 13 11 9 9 10 11 10 10 8 7 6 4 3 4 6 7 7 8 9 10 11 7 3 4 3 4 3 7 4 4 5 6 6
1 3 4 3 4 1 0 5 1 6 8 9 9 9 11 13 13 11 11 11 11 10 9 8 6 5 4 2 3 4 6 6 7 8 9 11 8 7 5 7 6 6 7 6 4 5 6 6 6
Wind_Direction
162 173 189 92 213 324 157 182 144 122 77 59 76 80 83 42 343 12 149 149 129 145 149 155 145 134 130 131 123 116 115 117 119 113 101 95 91 88 87 83 78 79 72 66 61 55 50 45 40
141 151 70 99 222 170 235 339 106 109 125 96 66 76 61 70 36 53 160 156 140 145 153 156 150 138 135 131 126 125 129 133 128 114 110 109 105 97 89 88 81 77 73 68 61 56 50 45 41
161 98 201 157 148 167 150 151 118 120 142 157 104 332 132 115 347 209 224 148 146 149 156 153 151 145 137 136 136 135 136 136 127 126 123 118 114 103 100 97 90 82 74 64 59 53 49 45 42
151 129 82 243 201 224 149 148 127 121 64 47 157 142 86 140 165 185 144 149 152 148 155 152 154 147 144 142 140 138 145 141 134 123 124 121 104 92 92 85 81 73 67 60 58 56 52 48 42
54 80 172 253 229 219 199 160 184 117 75 255 191 147 121 83 137 134 147 158 136 137 141 149 152 150 147 141 143 146 145 135 133 126 123 108 95 91 91 85 77 77 74 68 63 53 52 43 34
111 97 156 231 283 162 159 157 111 112 199 165 86 103 105 138 145 147 151 152 135 133 142 148 153 150 143 144 146 145 147 148 144 132 120 98 83 75 66 61 60 50 59 60 66 55 47 40 28
129 132 215 174 120 108 118 127 94 196 178 184 123 80 93 141 150 149 138 143 138 135 145 149 153 150 141 145 152 160 157 149 144 134 121 106 97 82 74 56 47 31 29 25 33 23 16 11 5
117 160 173 222 139 76 113 106 129 225 208 138 113 155 158 167 162 139 136 142 137 140 144 152 149 151 147 148 153 160 159 148 148 139 126 115 108 96 79 37 13 14 11 357 351 347 345 347 347
124 176 187 188 122 108 82 39 147 137 137 69 77 156 150 149 138 137 140 137 133 132 138 138 154 161 148 152 154 160 159 158 175 159 146 121 109 77 33 330 332 336 332 331 332 326 318 323 323
168 190 216 217 126 195 162 189 142 126 145 108 101 108 130 142 149 154 160 162 164 159 142 141 159 152 114 113 133 174 156 194 213 187 163 174 338 6 330 309 310 294 304 311 326 327 317 321 330
174 213 211 247 158 170 144 100 157 144 190 190 152 141 143 145 158 166 173 176 165 162 177 178 161 120 82 35 17 14 4 308 288 281 286 316 331 325 316 285 297 345 357 360 359 3 360 355 351
206 231 219 353 97 106 124 130 100 107 52 192 153 151 150 162 171 176 182 170 167 169 182 149 105 97 96 57 45 29 10 355 335 335 334 323 324 322 348 64 59 56 22 8 18 15 14 26 30
178 229 69 34 109 100 121 97 132 60 56 121 138 159 163 168 174 179 169 166 170 168 145 108 84 87 90 70 62 44 35 6 340 330 325 313 295 320 57 61 69 54 37 29 30 35 36 37 37
133 116 107 71 96 87 118 87 106 13 136 132 156 170 165 170 169 176 166 159 172 150 116 102 95 94 90 84 80 85 61 15 298 299 12 349 320 345 95 77 58 48 44 50 57 57 48 38 20
118 82 66 30 41 74 50 47 34 340 216 133 139 147 151 159 167 192 183 155 152 138 125 112 108 103 77 64 66 37 28 49 41 52 71 114 119 122 93 86 67 59 70 91 89 73 57 36 15
79 62 103 22 66 31 103 164 5 351 134 110 128 135 130 93 85 63 65 148 142 137 133 128 121 92 75 62 34 66 69 76 97 116 140 145 150 76 84 80 87 106 96 88 75 41 27 18 359
24 122 123 96 17 100 38 48 344 350 114 95 97 110 106 94 73 62 72 139 147 143 137 118 99 79 71 50 93 90 90 93 94 72 76 67 72 77 92 95 101 90 72 62 46 39 7 8 350
152 137 133 116 19 56 77 54 6 27 105 110 114 112 105 91 72 84 96 115 126 130 123 123 127 110 100 133 138 135 109 94 74 83 75 71 67 67 75 71 63 55 65 61 51 28 27 17 345
120 106 105 65 149 77 76 66 32 45 78 105 120 126 116 100 102 105 117 128 128 133 129 131 137 136 142 147 178 177 152 112 89 70 58 53 50 52 59 61 47 43 50 74 62 11 357 354 354
95 126 99 89 112 93 99 62 54 44 56 112 135 130 125 120 119 124 129 141 147 154 154 152 155 156 153 171 153 67 124 90 84 64 55 49 52 54 56 49 23 324 296 271 58 16 350 0 22
68 103 165 132 105 96 116 69 44 51 86 102 100 108 115 127 129 137 148 151 144 151 148 153 155 163 150 105 109 91 92 103 86 50 50 53 92 131 257 285 294 277 265 181 99 47 5 351 25
87 108 127 122 84 138 323 170 132 120 119 125 125 125 132 137 134 134 134 131 135 137 127 129 118 100 63 35 61 63 52 51 37 32 320 341 342 333 315 299 295 269 171 120 103 63 35 7 349
118 133 118 97 102 152 68 121 148 171 195 184 175 157 153 153 143 144 154 159 144 130 106 90 83 78 75 76 72 68 62 53 18 309 326 328 326 314 295 282 297 186 144 136 112 93 44 39 8
143 94 54 56 70 257 161 222 192 194 199 187 185 182 171 169 157 159 138 130 120 104 107 105 98 83 76 72 64 59 48 26 6 349 332 321 317 317 317 281 226 179 160 151 131 133 133 119 95
76 98 91 180 202 229 335 204 259 206 187 183 184 185 183 183 168 172 157 142 128 115 114 105 101 93 86 78 68 62 54 36 11 348 327 318 312 310 308 264 192 160 128 151 170 181 176 216 271
109 165 164 197 197 202 130 229 236 212 200 183 187 180 173 183 179 180 144 127 120 118 116 114 104 99 94 93 82 67 53 37 7 342 326 313 310 303 302 231 156 131 132 104 164 260 274 247 257
159 168 113 106 24 214 228 272 267 167 188 180 165 168 181 180 175 155 129 122 125 125 125 119 115 111 104 98 93 79 58 30 360 345 339 331 323 314 286 163 154 125 120 254 282 302 298 293 291
127 135 120 45 155 249 251 271 241 202 195 192 183 185 181 169 157 144 136 133 130 121 116 109 108 111 116 108 99 82 46 13 6 355 347 339 335 324 218 175 154 167 305 292 300 302 290 288 283
142 127 65 102 66 175 290 256 214 229 203 201 202 187 177 170 161 149 139 134 132 132 136 126 119 126 110 94 62 35 21 9 352 346 343 340 330 325 246 219 263 317 271 272 270 265 274 270 279
112 140 139 126 188 71 232 273 162 268 251 220 195 172 173 165 153 148 146 144 143 145 148 121 118 111 90 70 36 23 11 350 340 337 335 335 330 335 336 304 300 286 292 268 270 271 261 269 272